Date,TemperatureHighF,TemperatureAvgF,TemperatureLowF,DewpointHighF,DewpointAvgF,DewpointLowF,HumidityHigh,HumidityAvg,HumidityLow,PressureMaxIn,PressureMinIn,WindSpeedMaxMPH,WindSpeedAvgMPH,GustSpeedMaxMPH,PrecipitationSumIn
2013-1-1,52,38,27,20,13,7,56,38,21,30.43,30.32,4,1,8,0.00
2013-1-2,55,40,27,19,14,11,55,37,20,30.39,26.91,4,1,7,0.00
2013-1-3,56,40,28,17,10,0,49,31,18,30.43,30.30,4,1,8,0.00
2013-1-4,56,40,27,17,8,1,41,27,19,30.44,30.34,4,1,7,0.00
2013-1-5,56,41,29,16,11,6,45,29,19,30.46,30.27,4,1,7,0.00
2013-1-6,54,43,36,18,12,6,43,29,20,30.27,30.07,5,1,8,0.00
2013-1-7,64,48,36,28,18,7,65,34,16,30.20,30.08,6,2,12,0.00
2013-1-8,69,51,36,31,23,8,55,34,20,30.34,30.16,7,1,15,0.00
2013-1-9,65,50,38,37,30,24,72,48,22,30.34,29.98,4,1,7,0.00
2013-1-10,58,48,36,35,21,0,58,36,21,29.99,29.81,17,4,25,0.00
2013-1-11,47,37,28,18,6,-1,46,28,20,30.15,29.99,9,2,14,0.00
2013-1-12,45,34,26,7,3,-4,39,26,20,30.22,30.11,11,2,14,0.00
2013-1-13,42,31,20,7,1,-7,45,28,20,30.28,30.18,8,1,14,0.00
2013-1-14,39,31,24,5,-4,-8,27,22,20,30.49,30.28,9,3,21,0.00
2013-1-15,49,34,21,13,4,-6,41,28,20,30.60,30.48,10,1,14,0.00
2013-1-16,58,42,28,22,17,10,56,39,22,30.58,30.42,9,1,11,0.00
2013-1-17,64,45,30,21,15,8,55,32,17,30.52,30.38,4,1,7,0.00
2013-1-18,63,46,31,19,14,9,46,29,17,30.46,30.33,4,1,6,0.00
2013-1-19,66,48,32,18,13,8,44,26,15,30.47,30.33,4,1,7,0.00
2013-1-20,68,49,33,18,12,5,36,24,13,30.40,30.27,5,1,8,0.00
2013-1-21,68,50,35,18,11,2,31,21,13,30.40,30.27,4,1,8,0.00
2013-1-22,70,51,36,18,13,4,30,22,13,30.36,30.27,4,1,6,0.00
2013-1-23,64,52,42,21,16,9,36,24,17,30.35,30.24,4,1,7,0.00
2013-1-24,57,53,50,46,38,17,76,60,24,30.36,30.23,4,0,6,0.02
2013-1-25,68,57,50,51,46,43,94,68,44,30.35,30.14,4,1,7,0.06
2013-1-26,61,53,49,55,51,48,99,94,73,30.14,29.96,4,1,8,0.25
2013-1-27,63,54,44,51,39,30,99,58,38,30.00,29.92,16,5,24,0.00
2013-1-28,54,46,37,30,18,8,63,35,20,30.16,29.99,11,3,17,0.00
2013-1-29,59,47,35,30,25,17,55,43,27,30.35,30.11,9,2,11,0.00
2013-1-30,66,50,37,34,30,27,72,49,25,30.43,30.31,7,1,9,0.00
2013-1-31,69,53,39,37,34,31,76,53,26,30.40,30.28,4,1,8,0.00
2013-2-1,69,53,39,38,34,30,78,51,24,30.37,30.28,4,1,8,0.00
2013-2-2,69,56,45,36,33,24,66,44,19,30.44,30.29,4,1,6,0.00
2013-2-3,71,58,49,39,34,31,60,42,24,30.29,30.14,4,1,8,0.00
2013-2-4,73,56,44,36,29,18,65,40,13,30.25,30.13,4,1,8,0.00
2013-2-5,72,57,42,32,27,20,63,36,14,30.16,29.97,5,1,8,0.00
2013-2-6,72,58,46,33,23,15,53,29,12,30.18,29.96,9,2,14,0.00
2013-2-7,69,56,42,27,21,16,49,27,13,30.22,29.89,8,2,12,0.00
2013-2-8,56,48,39,32,26,16,58,42,22,29.89,29.81,19,5,30,0.00
2013-2-9,58,46,37,30,23,16,67,43,22,30.07,29.84,8,1,12,0.00
2013-2-10,58,45,36,27,19,12,53,37,20,30.13,30.00,8,2,13,0.00
2013-2-11,53,45,38,29,14,5,67,31,19,30.15,27.47,10,3,17,0.00
2013-2-12,60,44,31,18,13,3,40,28,19,30.43,27.65,5,1,8,0.00
2013-2-13,66,50,35,26,21,16,50,33,17,30.39,30.25,6,1,9,0.00
2013-2-14,70,54,39,30,24,19,60,35,15,30.40,30.26,11,2,16,0.00
2013-2-15,70,54,39,28,22,17,58,32,13,30.50,30.40,6,1,11,0.00
2013-2-16,69,54,40,26,21,17,50,29,14,30.46,30.11,4,1,7,0.00
2013-2-17,74,57,39,24,19,12,46,25,11,30.11,29.92,6,2,12,0.00
2013-2-18,66,53,41,22,18,12,43,26,15,30.20,29.98,6,1,8,0.00
2013-2-19,65,51,39,30,23,17,49,35,16,29.98,29.66,14,4,26,0.00
2013-2-20,58,48,40,39,31,24,77,54,31,29.97,29.63,11,2,16,0.00
2013-2-21,58,45,34,34,20,9,78,42,19,30.16,29.96,11,1,15,0.00
2013-2-22,62,48,34,18,13,2,35,25,18,30.27,30.15,8,1,10,0.00
2013-2-23,64,49,38,24,17,6,49,30,18,30.19,29.95,17,4,25,0.00
2013-2-24,57,47,40,17,10,6,27,22,18,30.32,30.16,16,5,24,0.00
2013-2-25,63,47,32,18,12,5,39,24,16,30.36,30.11,6,1,10,0.00
2013-2-26,60,48,35,18,12,2,36,24,18,30.36,30.14,10,2,17,0.00
2013-2-27,63,48,34,18,12,5,38,23,16,30.47,30.36,6,2,11,0.00
2013-2-28,70,52,36,18,12,1,27,20,12,30.51,30.41,5,1,8,0.00
2013-3-1,78,60,43,26,18,9,31,21,13,30.54,30.38,5,1,8,0.00
2013-3-2,79,64,46,33,27,19,51,27,13,30.43,30.15,8,1,11,0.00
2013-3-3,79,69,60,36,26,19,40,21,14,30.15,29.90,19,7,31,0.00
2013-3-4,76,63,51,42,31,19,57,34,13,30.21,29.97,11,2,17,0.00
2013-3-5,77,62,46,33,28,21,52,31,14,30.23,30.01,12,2,19,0.00
2013-3-6,70,62,54,37,30,20,47,31,16,30.05,29.95,17,7,30,0.00
2013-3-7,64,56,50,35,31,22,53,39,21,30.02,29.92,19,4,29,0.00
2013-3-8,56,48,44,46,40,35,92,72,54,29.94,29.78,17,2,24,0.14
2013-3-9,63,53,44,43,36,27,93,59,26,30.28,29.94,10,2,16,0.01
2013-3-10,71,59,48,37,21,15,66,25,12,30.40,26.98,8,2,14,0.00
2013-3-11,77,60,42,31,25,17,53,30,12,30.34,30.18,5,1,8,0.00
2013-3-12,81,64,48,33,28,4,50,29,12,30.30,26.87,5,1,8,0.00
2013-3-13,86,68,51,35,31,23,48,27,12,30.36,30.24,5,1,8,0.00
2013-3-14,91,72,54,34,30,23,41,23,11,30.33,30.16,5,1,8,0.00
2013-3-15,90,72,58,38,31,23,39,23,11,30.17,29.97,5,1,9,0.00
2013-3-16,89,74,57,32,28,16,35,19,11,30.01,29.85,11,2,16,0.00
2013-3-17,86,73,64,32,21,15,17,14,11,30.05,29.86,12,3,19,0.00
2013-3-18,82,68,53,24,19,14,23,16,11,30.15,29.90,7,1,11,0.00
2013-3-19,83,70,57,30,22,16,24,16,11,30.16,30.00,8,1,11,0.00
2013-3-20,78,70,62,42,28,20,43,22,14,30.12,29.91,14,4,19,0.00
2013-3-21,81,67,53,35,25,14,48,23,11,29.99,29.84,12,2,17,0.00
2013-3-22,80,66,53,24,19,12,22,17,11,29.98,29.86,8,2,12,0.00
2013-3-23,66,56,45,18,15,6,25,20,14,30.27,29.98,11,2,14,0.00
2013-3-24,74,51,42,24,12,6,26,21,11,30.21,30.05,7,1,11,0.00
2013-3-25,79,64,47,24,18,12,26,17,11,30.16,30.00,7,1,11,0.00
2013-3-26,83,70,56,31,22,14,27,17,11,30.01,29.88,10,3,17,0.00
2013-3-27,80,69,56,37,29,20,41,24,12,30.03,29.92,11,3,17,0.00
2013-3-28,80,67,58,40,37,26,48,35,15,30.12,30.03,11,4,14,0.00
2013-3-29,88,72,55,40,32,24,50,24,13,30.22,30.09,9,2,14,0.00
2013-3-30,88,72,59,37,30,24,35,22,12,30.19,30.06,5,1,8,0.00
2013-3-31,82,70,56,40,33,21,45,27,11,30.09,29.97,17,4,24,0.00
2013-4-1,80,67,56,43,34,22,56,31,13,30.09,30.00,19,4,33,0.00
2013-4-2,80,65,55,33,29,24,37,27,14,30.13,30.03,9,2,14,0.00
2013-4-3,87,71,55,40,33,24,51,27,12,30.22,30.09,8,1,16,0.00
2013-4-4,90,70,58,42,31,24,38,26,11,30.15,29.97,10,1,15,0.00
2013-4-5,88,75,61,41,32,20,43,24,12,30.06,29.94,12,3,21,0.00
2013-4-6,87,73,57,36,29,21,38,21,11,30.07,29.94,7,2,11,0.00
2013-4-7,90,74,60,36,28,16,34,20,11,30.00,29.67,19,3,29,0.00
2013-4-8,70,60,49,43,30,17,74,35,13,29.77,29.51,22,7,33,0.01
2013-4-9,71,60,52,23,18,15,27,21,12,30.17,29.77,13,5,21,0.00
2013-4-10,78,56,47,24,21,14,39,27,11,30.25,30.05,8,1,11,0.00
2013-4-11,84,68,52,31,23,16,27,18,11,30.07,29.85,6,1,11,0.00
2013-4-12,87,71,56,35,29,22,41,22,12,30.01,29.87,7,1,11,0.00
2013-4-13,89,75,58,36,28,19,35,19,12,29.92,29.65,18,5,30,0.00
2013-4-14,90,73,62,37,30,21,36,22,11,29.84,29.60,13,3,22,0.00
2013-4-15,80,69,59,34,28,18,35,23,12,29.74,29.58,21,7,33,0.00
2013-4-16,67,58,52,34,26,19,47,30,16,30.01,28.35,14,4,24,0.00
2013-4-17,67,57,49,27,19,16,40,23,14,30.30,30.01,11,4,18,0.00
2013-4-18,72,59,46,22,16,8,35,19,11,30.38,30.27,8,1,14,0.00
2013-4-19,82,65,46,24,18,9,26,17,11,30.35,30.04,9,2,16,0.00
2013-4-20,86,70,55,32,24,18,25,18,11,30.17,30.04,7,1,13,0.00
2013-4-21,94,75,56,39,26,18,26,17,11,30.17,29.97,8,2,14,0.00
2013-4-22,96,81,61,39,28,16,23,15,11,30.04,29.83,11,2,16,0.00
2013-4-23,78,68,59,25,19,15,20,15,12,30.23,29.89,13,3,21,0.00
2013-4-24,85,69,52,32,19,12,21,15,11,30.13,29.97,5,1,10,0.00
2013-4-25,89,72,54,32,22,13,24,16,11,30.06,29.97,8,1,11,0.00
2013-4-26,91,76,59,32,25,15,31,16,11,30.24,30.06,8,1,12,0.00
2013-4-27,96,79,60,39,26,15,22,15,11,30.27,30.07,7,1,12,0.00
2013-4-28,100,82,62,38,28,14,20,14,11,30.10,26.86,8,2,14,0.00
2013-4-29,102,86,69,46,31,17,18,14,11,29.96,29.76,14,3,21,0.00
2013-4-30,97,86,70,42,32,20,25,15,11,29.85,29.73,13,4,21,0.00
2013-5-1,84,73,63,31,20,14,17,13,11,30.41,29.85,13,4,21,0.00
2013-5-2,83,69,58,31,19,14,20,15,11,30.52,26.86,8,2,16,0.00
2013-5-3,91,72,57,37,22,14,21,15,11,30.28,29.90,6,1,8,0.00
2013-5-4,95,79,59,39,26,16,21,14,11,29.90,29.71,17,3,23,0.00
2013-5-5,85,74,66,32,22,16,24,14,11,29.91,29.78,13,4,20,0.00
2013-5-6,81,70,60,41,36,29,43,31,17,30.01,29.91,15,4,21,0.00
2013-5-7,74,66,58,46,40,31,55,40,21,30.05,29.97,15,3,22,0.00
2013-5-8,79,67,56,45,42,37,58,42,23,30.15,30.05,11,2,14,0.00
2013-5-9,82,69,56,47,42,37,55,39,21,30.15,30.07,6,1,14,0.00
2013-5-10,92,76,59,48,40,28,55,32,11,30.22,30.12,7,1,21,0.00
2013-5-11,96,74,63,45,39,25,41,29,11,30.28,30.17,7,1,10,0.00
2013-5-12,102,86,67,45,33,21,32,16,11,30.27,30.09,9,1,15,0.00
2013-5-13,105,89,69,46,34,20,31,15,11,30.17,29.99,11,2,17,0.00
2013-5-14,102,90,78,46,35,21,25,15,11,30.03,29.85,14,4,24,0.00
2013-5-15,100,86,72,44,32,22,25,15,11,30.01,29.87,14,4,30,0.00
2013-5-16,95,83,71,39,32,22,25,16,11,29.94,29.80,17,6,25,0.00
2013-5-17,89,77,69,44,36,28,34,24,15,29.99,29.83,14,6,24,0.00
2013-5-18,93,78,62,46,35,21,39,23,11,30.06,29.94,10,2,15,0.00
2013-5-19,89,78,65,37,27,19,29,16,11,30.11,29.96,10,2,17,0.00
2013-5-20,89,76,62,38,28,15,36,19,11,30.20,27.16,8,2,16,0.00
2013-5-21,96,81,63,39,30,17,26,16,11,30.07,29.78,14,4,24,0.00
2013-5-22,93,81,71,39,30,21,25,15,11,29.80,29.69,19,8,30,0.00
2013-5-23,89,77,64,31,25,15,24,15,11,29.93,29.75,17,6,27,0.00
2013-5-24,95,78,60,39,25,14,21,14,11,30.02,29.89,11,3,18,0.00
2013-5-25,93,80,68,39,27,17,24,14,11,30.00,29.91,14,5,22,0.00
2013-5-26,91,80,68,32,28,21,22,15,11,30.00,29.91,14,6,22,0.00
2013-5-27,96,81,63,38,31,22,33,17,11,30.00,29.13,14,3,21,0.00
2013-5-28,96,82,69,39,31,21,26,16,11,29.86,29.73,9,3,17,0.00
2013-5-29,96,81,67,39,34,22,30,19,11,29.93,29.75,9,2,15,0.00
2013-5-30,101,86,69,45,32,20,25,15,11,29.97,29.82,12,2,22,0.00
2013-5-31,101,87,70,44,30,20,18,13,11,30.08,29.88,10,2,15,0.00
2013-6-1,102,86,69,45,30,18,17,13,11,30.12,29.91,7,1,11,0.00
2013-6-2,107,89,68,46,33,16,20,14,11,29.93,29.75,14,3,22,0.00
2013-6-3,105,92,74,46,37,28,27,16,11,29.90,29.79,11,3,17,0.00
2013-6-4,105,88,73,46,34,21,27,15,11,29.97,29.87,10,2,13,0.00
2013-6-5,107,94,75,46,36,22,20,14,11,30.03,29.88,12,2,17,0.00
2013-6-6,109,96,77,46,38,25,25,14,11,30.00,29.85,7,1,10,0.00
2013-6-7,110,90,77,52,34,22,24,14,11,29.97,29.89,4,1,11,0.00
2013-6-8,114,101,77,53,42,21,30,14,11,30.12,29.89,9,2,14,0.00
2013-6-9,112,96,81,53,39,26,26,14,11,30.06,29.94,11,2,18,0.00
2013-6-10,102,90,81,46,35,24,21,14,11,30.03,29.91,17,5,25,0.00
2013-6-11,105,89,71,46,36,27,26,16,11,30.13,29.98,11,3,16,0.00
2013-6-12,107,94,79,46,36,24,17,13,11,30.09,29.97,14,4,21,0.00
2013-6-13,103,91,79,46,37,28,25,16,11,30.07,29.96,13,6,22,0.00
2013-6-14,105,89,69,46,32,14,15,13,11,30.08,29.92,12,3,24,0.00
2013-6-15,104,88,71,46,32,14,16,13,11,30.04,29.96,12,3,19,0.00
2013-6-16,102,88,71,46,32,15,15,13,11,30.13,30.02,12,3,18,0.00
2013-6-17,106,90,72,46,32,16,22,13,11,30.13,29.97,11,3,17,0.00
2013-6-18,103,91,80,46,34,21,15,13,11,30.01,29.85,17,6,24,0.00
2013-6-19,101,87,74,44,33,22,25,15,11,29.97,29.86,12,4,22,0.00
2013-6-20,100,80,69,38,24,14,15,13,11,30.00,29.89,11,2,16,0.00
2013-6-21,101,90,74,45,33,21,19,13,11,30.03,29.90,12,4,20,0.00
2013-6-22,103,89,72,46,32,17,15,13,11,30.05,29.90,11,3,17,0.00
2013-6-23,103,88,72,46,33,20,25,14,11,29.95,29.81,16,4,29,0.00
2013-6-24,91,83,74,48,40,30,30,22,13,29.98,29.83,14,7,24,0.00
2013-6-25,101,87,73,54,47,36,47,28,11,30.10,29.98,12,4,19,0.00
2013-6-26,107,94,80,57,49,35,37,23,11,30.15,30.05,13,5,20,0.00
2013-6-27,112,96,78,54,47,35,37,21,11,30.24,30.11,9,1,13,0.00
2013-6-28,117,101,82,53,47,35,30,17,11,30.18,29.99,8,1,15,0.00
2013-6-29,119,103,85,59,45,35,25,15,11,30.09,29.93,9,2,14,0.00
2013-6-30,120,102,87,60,43,30,23,14,11,30.05,29.89,9,1,14,0.00
2013-7-1,117,104,93,57,46,35,25,14,11,30.07,29.95,14,2,17,0.00
2013-7-2,117,104,88,54,48,36,27,16,11,30.10,29.94,13,3,20,0.00
2013-7-3,116,102,87,58,48,36,31,17,11,30.05,29.87,8,1,12,0.00
2013-7-4,116,103,90,53,47,36,25,15,11,29.96,29.82,9,2,14,0.00
2013-7-5,113,100,87,62,50,38,36,20,11,29.97,29.85,14,3,24,0.00
2013-7-6,108,97,86,59,48,35,36,21,11,30.02,29.88,13,3,17,0.00
2013-7-7,108,96,77,67,46,33,64,20,11,30.04,26.89,14,2,28,0.07
2013-7-8,109,95,78,53,43,29,36,18,11,30.12,30.00,11,2,23,0.00
2013-7-9,111,98,83,53,38,28,15,13,11,30.19,30.07,11,4,17,0.00
2013-7-10,112,97,84,63,47,28,38,19,11,30.14,29.98,13,2,18,0.00
2013-7-11,95,87,81,66,62,47,56,43,24,30.12,30.01,12,2,20,0.00
2013-7-12,98,86,79,66,63,61,59,46,32,30.15,30.04,8,1,13,0.00
2013-7-13,106,92,78,64,53,35,57,32,11,30.16,30.01,12,2,22,0.00
2013-7-14,108,94,81,61,48,39,35,22,11,30.15,29.99,10,2,17,0.00
2013-7-15,109,97,85,62,49,35,44,23,11,30.05,29.89,11,2,24,0.00
2013-7-16,108,95,83,49,42,29,25,16,11,30.10,29.97,13,3,21,0.00
2013-7-17,109,94,79,46,38,23,24,14,11,30.22,30.07,10,2,15,0.00
2013-7-18,112,97,80,55,39,21,25,14,11,30.18,29.99,8,1,14,0.00
2013-7-19,112,96,76,70,56,42,80,31,11,30.11,29.94,23,2,62,0.43
2013-7-20,108,92,79,71,64,44,76,43,13,30.10,29.91,11,3,23,0.02
2013-7-21,92,85,79,70,67,64,70,55,42,30.12,29.99,9,3,14,0.01
2013-7-22,100,88,78,70,66,58,74,51,31,30.19,30.06,8,1,12,0.00
2013-7-23,102,88,78,68,63,61,60,44,31,30.19,30.07,10,2,16,0.00
2013-7-24,108,95,80,66,57,42,56,33,11,30.13,29.97,9,2,14,0.00
2013-7-25,112,98,84,61,52,42,42,23,11,30.15,30.02,11,2,15,0.00
2013-7-26,109,94,84,65,59,42,46,33,11,30.22,30.12,12,2,20,0.00
2013-7-27,96,86,78,68,64,60,61,49,37,30.27,30.05,8,2,14,0.00
2013-7-28,100,84,76,71,62,51,77,48,29,30.08,29.98,17,2,24,0.15
2013-7-29,103,88,71,63,52,-4,74,36,11,30.15,30.06,11,2,18,0.00
2013-7-30,105,92,76,52,44,35,39,20,11,30.26,30.15,15,2,25,0.00
2013-7-31,108,94,77,59,49,36,46,24,11,30.25,30.06,14,3,19,0.00
2013-8-1,106,94,82,51,37,26,25,14,11,30.12,29.98,16,5,27,0.00
2013-8-2,106,91,74,46,35,22,25,14,11,30.10,29.99,13,4,17,0.00
2013-8-3,107,91,73,46,36,22,28,15,11,30.14,30.03,11,3,15,0.00
2013-8-4,109,93,76,47,39,26,28,16,11,30.15,30.02,11,2,17,0.00
2013-8-5,107,93,77,46,37,24,24,14,11,30.15,30.01,11,3,20,0.00
2013-8-6,106,92,75,46,36,22,25,14,11,30.15,30.03,11,3,18,0.00
2013-8-7,101,90,75,45,34,22,26,14,11,30.16,30.04,13,4,21,0.00
2013-8-8,100,89,77,39,32,22,17,13,11,30.11,30.00,14,5,24,0.00
2013-8-9,102,89,74,46,33,21,19,14,11,30.09,30.00,13,3,21,0.00
2013-8-10,103,89,71,46,34,24,26,15,11,30.15,30.04,11,2,16,0.00
2013-8-11,104,88,70,46,35,21,26,15,11,30.17,30.01,17,2,29,0.00
2013-8-12,106,90,72,46,34,22,23,14,11,30.16,30.02,10,2,16,0.00
2013-8-13,107,91,70,46,34,18,22,14,11,30.18,30.05,9,2,14,0.00
2013-8-14,107,91,73,46,34,19,18,13,11,30.17,30.03,10,2,26,0.00
2013-8-15,107,93,76,46,36,21,23,14,11,30.18,30.04,11,2,15,0.00
2013-8-16,110,97,80,54,46,36,36,19,11,30.17,30.03,12,2,19,0.00
2013-8-17,110,97,81,55,48,35,35,21,11,30.15,29.99,15,3,30,0.00
2013-8-18,107,88,76,69,58,43,78,40,12,30.24,30.08,14,2,20,0.14
2013-8-19,101,86,72,70,64,58,88,52,26,30.27,30.06,8,2,13,0.09
2013-8-20,107,94,81,65,54,36,56,30,12,30.14,29.99,11,2,18,0.00
2013-8-21,108,94,79,58,47,35,42,23,11,30.15,30.02,11,2,16,0.00
2013-8-22,108,93,82,56,50,42,37,24,12,30.15,30.03,16,4,27,0.00
2013-8-23,98,86,79,63,58,48,49,39,24,30.15,29.99,17,3,27,0.00
2013-8-24,94,84,77,69,60,54,64,45,32,30.12,30.03,13,2,20,0.00
2013-8-25,95,79,72,70,63,58,90,60,35,30.25,30.11,14,3,24,0.02
2013-8-26,78,74,71,70,67,64,89,80,68,30.27,30.17,4,1,8,0.19
2013-8-27,97,82,69,67,65,61,91,59,34,30.18,30.04,7,1,11,0.00
2013-8-28,103,87,76,70,64,60,65,47,27,30.16,30.06,14,1,21,0.06
2013-8-29,102,89,72,72,66,63,94,49,30,30.23,30.13,8,1,10,0.05
2013-8-30,95,85,78,75,68,64,89,59,43,30.30,30.15,8,1,13,0.06
2013-8-31,95,84,76,72,69,63,85,61,42,30.20,30.08,11,1,16,0.01
2013-9-1,99,85,75,72,69,65,85,61,35,30.17,30.04,6,1,10,0.00
2013-9-2,102,89,79,69,64,58,67,45,25,30.18,30.02,11,1,21,0.00
2013-9-3,100,88,77,67,63,55,70,45,28,30.23,30.07,10,1,17,0.00
2013-9-4,105,88,79,67,61,44,62,43,13,30.22,30.10,13,2,21,0.02
2013-9-5,104,88,75,65,60,44,70,42,14,30.21,30.08,12,2,17,0.00
2013-9-6,106,87,77,65,58,43,53,39,12,30.16,30.07,12,2,21,0.00
2013-9-7,90,83,78,66,61,57,63,48,38,30.20,30.11,6,1,9,0.00
2013-9-8,91,80,71,69,64,60,87,61,41,30.17,30.02,5,1,8,0.02
2013-9-9,98,76,71,70,64,56,83,68,27,30.06,29.78,7,1,14,0.15
2013-9-10,91,57,0,70,62,51,83,40,36,30.00,29.85,6,1,12,0.00